User: anonymous   Login
Location: Unspecified
(0.0000°N, 0.0000°E)
Time: 01:59:29
(UTC+00:00)
Language:

PLEIADES HR1 - Orbit

View from above orbital plane
View from above orbital plane
View from above satellite
View from above satellite

Ground track
Ground track

The orbit data is extracted from the following two-line orbital elements,

1 38012U 11076F   16038.83372992  .00000095  00000-0  30161-4 0  9999
2 38012  98.1710 115.0044 0001449  83.5084 276.6274 14.58559225220658
Epoch (UTC): 07 February 2016 20:00:34
Eccentricity: 0.0001449
inclination: 98.1710°
perigee height: 697 km
apogee height: 699 km
right ascension of ascending node: 115.0044°
argument of perigee: 83.5084°
revolutions per day: 14.58559225
mean anomaly at epoch: 276.6274°
orbit number at epoch: 22065

The dashed part of the orbit path shows where the satellite is in the earth's shadow,  

DLR